#timestamp,LO_Frequency,Hit,StdDev 
1652508015.2,286047000.9,N
1652508035.0,286046998.1,N
1652508035.9,286046998.1,N
1652508055.8,286046998.5,N
1652508075.6,286047001.2,N
1652508095.4,286047001.2,N
1652508115.3,286047000.2,N
1652508135.1,286047001.0,N
1652508155.9,286046998.6,N
1652508175.7,286047001.2,N
1652508195.5,286047000.7,N
1652508215.4,286047000.5,N
1652508235.2,286047000.3,N
1652508255.0,286047002.8,N
1652508255.9,286047002.8,N
1652508275.8,286047002.6,N
1652508295.6,286046999.7,N
1652508315.5,286047001.0,N
1652508335.3,286046998.2,N
1652508355.1,286046998.3,N
1652508375.9,286046998.3,N
1652508395.7,286046998.6,N
1652508415.5,286046998.5,N
1652508435.4,286046998.2,N
1652508455.2,286046998.6,N
1652508475.1,286046998.5,N
1652508476.0,286046998.5,N
1652508495.8,286046998.2,N
1652508515.6,286046998.6,N
1652508535.5,286046998.6,N
1652508555.3,286047000.6,N
1652508575.1,286047001.2,N
1652508595.9,286046998.3,N
1652508615.7,286046998.6,N
1652508635.6,286046998.2,N
1652508655.4,286047000.8,N
1652508675.2,286046998.9,N
1652508695.1,286046998.7,N
1652508696.0,286046998.7,N
1652508715.8,286046999.3,N
1652508735.7,286046998.9,N
1652508755.5,286046999.0,N
1652508775.3,286046999.4,N
1652508795.2,286046999.6,N
1652508815.9,286046996.5,N
1652508835.7,286046999.5,N
1652508855.6,286046996.8,Y
1652508875.4,286046998.9,P
1652508895.3,286047001.0,P
1652508915.1,286047001.2,N
1652508916.0,286047001.2,N
1652508935.8,286047002.8,N
1652508955.7,286047002.7,N
1652508975.5,286047000.4,N
1652508995.3,286047000.1,N
1652509015.2,286047001.7,N
1652509035.0,286046999.8,N
1652509035.9,286046999.8,N
1652509055.8,286047002.4,N
1652509075.6,286046999.9,N
1652509095.4,286047000.3,N
1652509115.3,286047002.8,N
1652509135.1,286046999.7,N
1652509155.8,286047002.8,N
1652509175.7,286047002.8,N
1652509195.5,286047000.5,N
1652509215.4,286047000.7,N
1652509235.2,286047000.4,N
1652509255.0,286046999.9,N
1652509255.9,286046999.9,N
1652509275.8,286047000.9,N
1652509295.6,286047000.0,N
1652509315.5,286047000.5,N
1652509335.3,286046999.8,N
1652509355.1,286047000.4,N
1652509375.9,286047000.0,N
1652509395.7,286047000.0,N
1652509415.5,286047000.1,N
1652509435.4,286047000.2,N
1652509455.2,286047001.3,N
1652509475.1,286047003.5,Y
1652509476.0,286047003.5,P
1652509495.8,286046999.7,N
1652509515.6,286046999.8,N
1652509535.5,286046999.7,N
1652509555.3,286047000.6,N
1652509575.1,286046998.2,N
1652509595.9,286047001.2,N
1652509615.7,286047000.1,N
1652509635.6,286047000.1,N
1652509655.4,286046999.7,N
1652509675.2,286047000.1,N
1652509695.1,286047001.4,N
1652509696.0,286047001.4,N
1652509715.8,286047001.5,N
1652509735.7,286047001.3,N
1652509755.5,286047003.7,Y
1652509775.3,286047002.5,P
1652509795.2,286047004.2,P
1652509815.0,286047001.8,N
1652509815.9,286047001.8,N
1652509835.8,286047004.3,Y
1652509855.2,286047002.6,P
1652509875.0,286047000.8,P
1652509875.9,286047000.8,N
1652509895.8,286046999.2,N
1652509915.6,286046998.3,N
1652509935.4,286047000.5,N
1652509955.3,286046998.5,N
1652509975.1,286046999.2,N
1652509995.8,286046998.9,N
1652510015.7,286047000.7,N
1652510035.5,286047001.0,N
1652510055.4,286046998.1,N
1652510075.2,286046998.2,N
1652510095.0,286046998.9,N
1652510095.9,286046998.9,N
1652510115.8,286046997.0,N
1652510135.6,286046997.1,N
1652510155.4,286046996.1,N
1652510175.3,286046994.8,Y
1652510195.1,286046994.8,P
1652510215.9,286046994.0,N
1652510235.7,286046993.3,N
1652510255.5,286046996.0,N
1652510275.4,286046993.5,Y
1652510295.2,286046998.1,P
1652510315.1,286047000.7,N
1652510316.0,286047000.7,N
1652510335.8,286047000.9,N
1652510355.6,286047000.9,N
1652510375.5,286047000.3,N
1652510395.3,286047000.3,N
1652510415.1,286047000.7,N
1652510435.9,286047000.1,N
1652510455.7,286047001.2,N
1652510475.6,286047001.1,N
1652510495.4,286046998.8,N
1652510515.2,286047001.2,N
1652510535.1,286046998.6,N
1652510536.0,286046998.6,N
1652510555.8,286046999.3,N
1652510575.7,286046996.7,N
1652510595.5,286046997.4,N
1652510615.3,286046997.4,N
1652510635.2,286046997.2,N
1652510655.9,286046997.3,N
1652510675.7,286046996.9,N
1652510695.6,286046996.6,N
1652510715.4,286046999.6,N
1652510735.3,286046999.6,N
1652510755.1,286046998.5,N
1652510756.0,286046998.5,N
1652510775.8,286046999.3,N
1652510795.7,286046996.9,N
1652510815.5,286046997.3,N
1652510835.3,286046997.9,N
1652510855.2,286046997.6,N
1652510875.0,286046995.0,Y
1652510875.9,286046995.0,P
1652510895.8,286046999.2,N
1652510915.6,286046997.7,N
1652510935.5,286046999.5,N
1652510955.3,286046999.4,N
1652510975.1,286046999.0,N
1652510995.9,286046999.0,N
1652511015.7,286046999.6,N
1652511035.5,286046998.0,N
1652511055.4,286046997.7,N
1652511075.2,286046998.0,N
1652511095.1,286046997.8,N
1652511096.0,286046997.8,N
1652511115.8,286046997.9,N
1652511135.6,286046997.4,N
1652511155.5,286046996.7,N
1652511175.3,286046997.0,N
1652511195.1,286046996.5,Y
1652511215.9,286046998.1,P
1652511235.7,286047001.0,P
1652511255.6,286047001.1,N
1652511275.4,286046998.5,N
1652511295.2,286046998.5,N
1652511315.1,286047001.1,N
1652511316.0,286047001.1,N
1652511335.8,286046999.0,N
1652511355.7,286046998.6,N
1652511375.5,286046998.3,N
1652511395.3,286047001.0,N
1652511415.2,286047001.1,N
1652511435.0,286046998.4,N
1652511435.9,286046998.4,N
1652511455.7,286046998.8,N
1652511475.6,286046999.6,N
1652511495.4,286046998.9,N
1652511515.3,286046996.9,N
1652511535.1,286046995.4,Y
1652511555.8,286046997.6,P
1652511575.7,286046996.7,P
1652511595.5,286046996.7,P
